Location: Campo Claro
(10.4907°N, 66.8285°W)
Time: 06:11:17
(UTC+00:00)

BREEZE-M DEB (TANK) - Pass Details

Date: 05 July 2022
Orbit: 341 x 14877 km, 49.6° (Epoch: 11 August)

Event Time Altitude Azimuth Distance (km) Brightness Sun altitude
Rises 00:52:57 0° 314° (NW) 20,108 12.4 -26.9°
Reaches altitude 10° 01:34:21 10° 303° (WNW) 18,548 11.8 -35.3°
Maximum altitude 02:33:29 18° 268° (W) 11,515 10.1 -45.9°
Drops below altitude 10° 02:57:02 10° 227° (SW) 7,395 8.9 -49.4°
Enters shadow 03:02:31 - 211° (SSW) 6,722 8.6 -50.2°
